Regional Weather Roundup
Issued by NWS

Home | Current Version | Previous Version | Graphics & Text | Print | Product List | Glossary On
Versions: 1 2 3 4 5 6 7 8 9 10 11 12 13 14 15 16 17 18 19 20 21 22 23 24 25 26 27 28 29 30 31 32 33 34 35 36 37 38 39 40 41 42 43 44 45 46 47 48 49 50
469
ASUS45 KTFX 260710
RWRMT
MONTANA REGIONAL WEATHER ROUNDUP
NATIONAL WEATHER SERVICE GREAT FALLS MT
100 AM MDT FRI MAY 26 2017

NOTE: "FAIR" INDICATES FEW OR NO CLOUDS BELOW 12000 FEET WITH NO
SIGNIFICANT WEATHER AND/OR OBSTRUCTIONS TO VISIBILITY.

MTZ001>007-043-260800-
WEST OF THE DIVIDE

CITY           SKY/WX    TMP DP  RH WIND       PRES   REMARKS
KALISPELL      MOCLDY    48  40  73 N12       29.90R
MISSOULA       CLOUDY    49  36  61 CALM      29.87R
BUTTE          CLOUDY    39  28  64 E3        29.93R
MULLAN PASS    CLOUDY    40  33  76 N8        29.91S
ANACONDA         N/A     43  30  61 W3        29.92S
DEER LODGE       N/A     43  30  61 CALM      29.94R
EUREKA           N/A     45  39  81 CALM      29.92R
HAMILTON         N/A     45  34  65 CALM      29.86R
PLAINS           N/A     46  37  70 CALM      29.89R
RONAN            N/A     50  40  68 N2        29.92S
$$

MTZ008-052>055-260800-
SOUTHWEST MONTANA

CITY           SKY/WX    TMP DP  RH WIND       PRES   REMARKS
BOZEMAN        PTCLDY    38  33  82 SW5       29.91S
DILLON         CLOUDY    45  29  53 NE7       29.89R
W YELLOWSTONE  CLOUDY    36  28  75 CALM      29.92S
ENNIS          CLOUDY    39  32  75 S5        29.95R
THREE FORKS      N/A     38  32  79 CALM      29.91S
TWIN BRIDGES     N/A     45  27  49 S9        29.90S
$$

MTZ009-010-012-014-046-048-049-054-260800-
EAST SLOPES AND CENTRAL MONTANA

CITY           SKY/WX    TMP DP  RH WIND       PRES   REMARKS
CUT BANK       CLEAR     40  37  89 W12       29.90S
GREAT FALLS    CLOUDY    45  38  76 NW9       29.91S
MALMSTROM AFB  CLOUDY    46  39  76 NW9       29.91R
HELENA         MOCLDY    47  36  65 SE3       29.91R
CHOTEAU          N/A     43  36  75 NW9       29.93S
CONRAD           N/A     44  44 100 W9        29.94S
$$

MTZ011-013-016-021-045-047-050-051-260800-
NORTH CENTRAL MONTANA

CITY           SKY/WX    TMP DP  RH WIND       PRES   REMARKS
HAVRE          CLEAR     43  39  86 W9        29.84R
LEWISTOWN      CLOUDY    43  38  82 W7        29.89R
N BAR RANCH    CLOUDY    45  37  76 W10       29.90S
CHINOOK          N/A     43  39  87 CALM      29.82S
FORT BENTON      N/A     45  37  76 CALM        N/A
$$

MTZ017>020-022>027-061-062-260800-
NORTHEAST MONTANA

CITY           SKY/WX    TMP DP  RH WIND       PRES   REMARKS
GLASGOW        CLEAR     44  38  79 W14       29.75R
JORDAN           N/A     40  34  79 SW5       29.81R
SIDNEY         CLOUDY    51  40  65 W20G25    29.70R
WOLF POINT     CLOUDY    52  39  61 W13G22    29.71S
MALTA          PTCLDY    43  37  81 W12       29.79R
PLENTYWOOD       N/A     48  43  81 W15       29.63R
POPLAR           N/A     50  39  66 W12       29.71R
$$

MTZ028>42-056>058-260800-
SOUTHCENTRAL AND SOUTHEAST MONTANA

CITY           SKY/WX    TMP DP  RH WIND       PRES   REMARKS
BAKER          MOCLDY    48  37  65 W22       29.77S
BILLINGS       CLEAR     44  32  62 SW8       29.88S
LIVINGSTON     CLEAR     33  30  88 NW5       29.91F
MILES CITY     PTCLDY    43  35  73 W9        29.82R
BIG TIMBER     CLEAR     37  32  81 W9        29.93S WCI  31
FORSYTH          N/A     48  36  61 CALM      29.83S
LAUREL           N/A     40  29  65 CALM      29.88F
ROUNDUP          N/A     47  32  56 SW6       29.80R
$$

REGIONAL REPORTS...DAKOTAS

CITY           SKY/WX    TMP DP  RH WIND       PRES   REMARKS
WILLISTON      MOCLDY    50  42  74 W13       29.65R
MINOT          CLEAR     54  44  69 SW12      29.57R
DICKINSON      CLOUDY    48  38  68 W14       29.69R
BEACH          CLOUDY    48  41  76 W14G20    29.76S
CROSBY         CLOUDY    48  48 100 W14       29.59R
TIOGA            N/A     48  48 100 W22G28    29.62S
WATFORD CITY   CLOUDY    50  43  76 W15G21    29.65S
BISMARCK       CLEAR     52  44  74 SW6       29.65R
GRAND FORKS    PTCLDY    53  50  89 SW5       29.56R
FARGO          PTCLDY    59  54  83 S12       29.58S
BUFFALO SD       N/A     46  40  79 W14       29.71F
RAPID CITY     CLEAR     44  35  70 NW6       29.83R
$$

REGIONAL REPORTS...WYOMING/IDAHO/WASHINGTON

CITY           SKY/WX    TMP DP  RH WIND       PRES   REMARKS
GILLETTE       PTCLDY    39  35  86 W8        29.89R
SHERIDAN       CLOUDY    40  34  79 W7        29.90S
BUFFALO WY     CLOUDY    48  33  56 N6        29.92R
CODY           CLOUDY    46  29  51 CALM      29.94S
YELLOWSTONE LA   N/A     33  27  78 CALM      29.94F
IDAHO FALLS    CLEAR     43  35  73 CALM      29.82R
SALMON         CLOUDY    48  39  71 SW8       29.86R
BOISE          CLOUDY    53  41  63 NW6       29.79R
SPOKANE        PTCLDY    52  40  63 SW5       29.87S
$$

REGIONAL REPORTS...ALBERTA

CITY           SKY/WX    TMP DP  RH WIND       PRES   REMARKS
EDMONTON       CLEAR     48  37  66 W7        29.77S
CALGARY        PTCLDY    45  34  65 NW7       29.88S
LETHBRIDGE     CLOUDY    45  39  81 W10       29.88S
MEDICINE HAT   CLEAR     50  41  71 W18G24    29.79S
WATERTON GATE    N/A     37  36  93 S8          N/A  WCI  31
MILK RIVER       N/A     41  37  87 W12         N/A
$$

REGIONAL REPORTS...SASKATCHEWAN

CITY           SKY/WX    TMP DP  RH WIND       PRES   REMARKS
SWIFT CURRENT  MOCLDY    45  41  87 NW21G28   29.66S
REGINA         CLOUDY    48  45  87 W21       29.52S
SASKATOON      CLOUDY    48  45  87 NW16G22   29.57R
CYPRESS HILLS    N/A     41  36  81 NW6         N/A
VAL MARIE        N/A     41  36  81 W13         N/A
ROCKGLEN         N/A     45  39  81 NW18G26     N/A
$$




USA.gov is the U.S. government's official web portal to all federal, state and local government web resources and services.